Wind_Gust
16 15 13 14 15 15 16 17 17 15 17 26 21 23 21 22 10 14 21 17 19 19 19 16 20 22 15 14 13 13 14 16 11 12 12 16 14 13 13 13 14 13 17 11 13 13 20 15 14 16 17 10 11 9 21 21 18 20 25 23 16 5 15 19 21 19 19 22 14 9 21 21 22 21 22 22 26 27 28 23 14 13 8 15 14 12 10
17 14 13 14 15 15 17 17 17 16 13 19 20 18 20 13 11 15 17 17 16 12 17 16 15 21 11 11 10 10 14 15 11 18 17 18 18 15 13 10 12 14 9 11 14 8 13 9 12 16 12 11 7 10 13 17 21 17 11 10 12 12 17 20 18 18 18 20 20 18 16 25 20 19 22 30 29 27 20 16 12 10 14 12 15 11 6
15 13 13 15 15 16 17 17 17 16 14 14 14 14 15 11 15 18 23 20 18 19 17 15 10 15 10 11 13 14 15 10 14 16 10 9 9 11 12 11 11 14 11 14 15 11 13 14 10 19 15 11 14 14 12 13 16 11 13 6 9 12 10 9 17 19 20 21 21 21 13 13 19 19 24 26 29 28 24 10 17 19 13 14 10 10 11
14 13 14 15 16 17 17 16 15 15 13 8 13 15 17 12 13 18 20 21 20 20 26 26 17 13 12 5 12 13 10 14 10 12 11 8 13 10 14 15 12 15 11 12 14 17 12 12 11 12 20 20 15 9 7 11 15 11 7 9 13 11 10 13 15 18 13 12 16 14 20 11 13 18 20 23 24 32 19 12 13 16 20 11 11 17 19
15 14 14 15 16 17 17 17 15 13 11 10 12 17 15 9 15 20 19 18 19 18 22 21 11 11 11 11 14 13 14 10 20 11 15 11 14 16 16 16 15 14 12 11 14 17 18 16 15 13 17 14 16 10 9 10 12 7 8 6 10 10 13 10 10 11 16 11 14 16 17 15 10 14 16 19 25 24 25 19 11 17 14 10 9 15 21
14 14 15 15 16 17 17 17 16 12 10 12 12 14 17 12 14 17 14 15 17 15 15 13 9 11 15 9 10 9 12 11 9 10 15 15 12 15 14 12 15 10 12 9 10 12 13 13 12 8 10 16 17 16 13 10 7 10 9 8 10 9 7 13 11 12 12 9 8 20 19 12 11 16 13 17 18 22 19 11 15 15 9 10 11 12 16
13 14 14 14 16 17 18 17 16 13 10 10 13 17 15 13 18 15 21 10 12 10 9 8 10 13 9 10 9 10 9 10 11 10 7 10 10 14 5 16 20 14 17 12 12 11 11 9 7 12 9 9 11 10 9 10 13 8 7 9 10 11 12 17 12 9 14 11 10 12 26 21 12 16 16 14 18 15 15 17 20 17 17 15 20 20 18
13 14 14 15 16 18 18 19 16 13 13 14 17 19 12 12 11 12 13 12 13 11 12 11 11 11 9 9 9 8 10 9 13 15 10 6 7 10 10 9 16 9 12 12 11 7 10 11 6 9 8 9 7 8 6 9 13 15 9 9 10 10 7 11 9 13 9 9 7 13 18 19 18 21 21 21 18 17 21 22 20 13 14 12 13 15 14
13 14 15 15 17 17 18 19 16 14 13 17 19 16 16 12 21 22 14 11 15 12 12 11 11 13 12 13 13 10 11 9 9 8 14 8 8 11 9 10 13 9 11 9 9 12 7 7 7 11 9 10 7 8 10 14 5 6 9 8 7 9 7 10 12 9 6 9 10 13 16 11 22 25 24 22 19 18 21 20 16 15 15 12 12 14 11
13 14 15 16 17 18 19 19 17 15 14 17 17 15 22 24 23 18 14 11 7 13 11 12 15 11 12 11 13 9 9 13 10 8 14 12 13 7 9 10 13 9 11 8 8 11 10 12 13 15 13 11 12 10 9 11 9 7 10 8 12 10 12 10 8 9 8 15 10 11 17 11 13 20 20 17 15 16 22 21 21 19 12 13 13 11 15
14 13 14 15 16 18 18 18 17 14 18 18 19 19 17 14 17 14 12 8 9 13 13 13 9 18 14 11 15 10 10 14 18 9 9 15 11 10 10 9 9 11 8 13 15 11 12 14 15 15 16 15 13 14 13 12 14 12 11 8 6 11 11 11 7 11 9 11 7 7 9 9 10 11 12 11 15 17 20 21 19 18 18 14 15 15 15
13 13 15 15 16 18 18 18 17 14 11 18 19 22 21 16 16 15 10 8 11 9 8 15 15 9 10 10 13 12 11 12 11 9 9 12 10 11 14 12 10 8 11 11 11 11 15 17 18 19 18 17 15 15 14 13 10 10 13 11 9 9 7 10 10 13 7 8 8 11 14 9 9 11 16 11 10 17 25 21 21 19 19 16 16 17 17
13 14 15 16 17 18 18 18 17 16 13 18 18 20 17 16 14 14 14 15 6 10 8 12 11 12 11 13 8 9 8 14 14 9 10 11 8 9 13 12 7 14 9 11 12 15 16 13 15 17 18 18 19 17 17 13 12 11 11 11 10 7 9 8 8 12 6 9 7 11 8 8 6 8 17 17 10 15 11 21 23 22 19 15 14 14 13
13 14 15 16 18 18 18 18 17 16 14 13 17 20 21 18 13 12 15 15 8 10 12 12 12 12 10 9 7 10 12 11 9 9 10 8 10 9 10 12 13 16 9 8 12 14 12 13 11 11 16 16 14 16 14 8 9 11 14 13 11 10 13 8 12 8 11 11 14 14 15 12 12 7 17 20 14 13 12 10 16 21 19 17 14 12 11
13 14 16 17 18 19 19 19 18 17 15 12 18 21 20 17 11 13 15 16 11 9 8 14 14 14 8 7 9 9 11 14 13 15 12 14 12 11 10 11 15 11 10 11 13 11 10 5 9 9 8 14 16 14 10 10 11 13 11 11 10 9 7 12 11 7 11 10 16 14 10 8 9 10 9 9 8 7 7 7 11 19 19 16 14 11 8
13 15 16 18 18 20 20 20 19 18 16 15 19 19 19 11 10 12 16 18 16 9 15 12 16 9 10 12 8 11 8 4 8 12 15 11 13 11 11 11 9 9 13 14 11 8 7 8 7 10 8 7 8 12 8 9 13 21 17 13 9 11 10 9 9 8 7 8 9 10 8 9 9 13 12 11 9 7 5 7 12 17 17 15 12 10 8
13 14 16 17 19 20 21 21 20 19 16 13 19 18 15 8 10 11 15 16 10 15 13 13 10 8 12 11 11 11 9 6 9 8 11 11 14 13 22 9 10 10 12 11 11 12 10 10 11 10 12 4 5 5 8 7 6 7 10 14 11 11 11 11 10 8 8 6 7 10 11 11 12 13 12 12 8 6 7 9 11 15 16 16 13 12 13
12 15 16 17 18 20 21 21 21 20 18 12 17 16 15 8 7 11 13 20 11 12 16 11 10 11 14 17 12 12 10 8 10 10 9 11 17 16 16 14 15 11 11 10 11 9 8 10 11 10 8 10 7 7 8 11 7 6 6 10 8 13 7 8 8 8 9 10 15 14 12 9 13 15 14 9 7 7 6 9 9 13 14 15 15 15 14
13 14 16 18 19 20 20 20 21 20 19 15 20 18 17 7 6 9 12 20 11 11 17 13 10 12 12 9 12 7 11 13 12 4 4 10 13 18 9 12 11 13 16 10 10 15 13 14 15 14 10 6 11 8 12 12 8 9 9 6 9 11 10 10 4 9 7 11 13 17 14 9 19 19 10 15 9 8 10 8 10 11 13 14 14 14 15
13 15 17 18 20 21 21 21 21 20 18 14 13 14 12 8 6 9 12 15 16 14 13 13 9 13 15 18 15 15 9 14 13 19 9 8 11 13 14 13 15 14 11 10 5 9 8 7 8 11 16 11 13 14 18 14 17 14 12 13 13 12 12 10 13 9 9 10 16 11 12 15 23 22 11 21 8 9 10 13 13 13 14 15 16 16 15
14 16 17 19 21 21 22 22 22 20 19 14 9 15 11 8 8 10 14 14 14 11 12 13 16 19 16 15 15 15 15 19 17 16 18 12 14 11 7 8 17 22 9 14 8 10 10 10 8 10 12 12 13 10 15 16 20 20 15 16 17 19 6 11 13 13 13 15 14 12 9 9 17 18 15 15 16 10 10 11 15 14 15 15 16 16 16
15 16 18 20 21 22 22 23 22 20 19 15 13 15 8 9 7 10 11 11 13 12 18 16 16 16 16 15 13 13 17 16 15 15 16 15 9 13 13 16 19 14 11 12 13 15 16 14 13 11 11 15 14 13 13 15 18 16 21 12 17 20 18 13 18 15 18 17 13 9 7 13 15 18 20 18 15 15 15 15 15 15 16 16 19 18 16
16 16 18 20 21 23 23 24 23 23 21 18 16 15 13 12 12 6 7 19 17 17 14 15 14 18 16 17 13 14 15 15 13 13 15 15 11 15 18 13 18 19 15 15 11 12 16 14 13 10 17 18 19 23 22 22 23 20 22 16 20 13 20 14 27 32 26 22 17 16 18 18 20 19 19 18 17 17 17 18 19 17 17 16 18 16 16
15 17 19 20 21 23 23 24 25 23 24 21 14 15 14 13 14 10 14 16 10 15 13 11 11 12 15 15 14 12 12 14 14 10 7 9 16 12 16 18 13 16 14 12 15 13 14 10 16 11 17 16 18 20 21 23 21 20 20 16 11 12 11 16 21 21 15 20 12 20 21 20 21 23 21 20 19 20 19 20 20 19 18 19 17 18 17
15 16 18 20 21 23 23 23 23 23 23 21 23 15 11 9 11 11 13 11 10 6 14 10 12 12 13 13 12 14 13 11 11 11 9 8 13 17 15 10 10 12 14 11 16 15 13 18 16 14 14 8 10 23 20 22 24 16 21 21 18 22 20 30 24 22 24 23 19 21 19 19 18 20 21 21 21 22 20 21 20 20 19 18 18 17 18
15 16 18 20 20 22 22 22 23 22 20 23 17 17 11 12 9 16 13 12 12 14 15 13 13 10 13 11 15 14 10 13 13 12 11 14 13 12 11 8 8 10 8 8 11 14 15 16 14 16 17 22 13 25 21 22 25 19 22 21 19 19 14 21 18 30 28 24 21 21 21 21 20 20 20 21 21 21 20 20 19 18 18 17 16 15 16
15 16 18 19 20 21 22 21 22 21 21 21 18 17 13 8 9 13 17 18 10 11 12 16 16 16 13 15 13 13 13 13 10 11 13 13 13 11 9 9 10 11 16 18 20 15 17 19 15 24 21 26 19 28 26 27 26 22 25 24 20 24 27 26 21 23 19 19 21 16 20 20 19 17 17 18 18 18 19 18 18 18 19 17 17 16 15
15 17 18 19 20 21 21 22 21 22 20 21 16 10 9 6 6 9 13 14 18 11 17 15 18 16 11 19 14 16 14 13 12 11 13 13 13 11 8 11 9 12 12 14 17 18 18 21 24 18 20 22 24 25 23 24 21 25 23 25 21 16 17 18 18 16 19 17 18 21 22 20 17 17 16 16 16 17 17 17 17 16 15 15 15 14 14
15 17 19 20 20 21 21 21 20 20 20 18 17 10 8 6 7 8 14 13 13 10 17 16 14 13 15 13 11 18 14 12 12 12 12 13 14 14 15 15 15 17 20 19 19 18 19 19 15 18 16 14 19 24 20 23 22 26 25 20 21 25 26 28 26 24 21 19 19 17 20 21 18 16 15 15 13 16 17 16 15 16 16 14 14 13 13
16 18 19 20 21 21 21 20 20 19 19 18 15 15 13 12 7 11 14 13 15 17 17 12 16 13 10 12 14 14 16 15 15 13 13 13 13 14 16 14 15 16 17 16 15 21 18 19 17 17 10 10 19 18 23 24 25 26 19 20 21 22 23 23 18 19 23 23 20 19 19 19 17 16 15 14 14 15 17 16 13 15 16 14 14 14 12
17 18 20 20 21 20 20 21 19 20 18 12 16 13 12 14 11 10 12 14 13 16 12 12 18 13 15 11 12 16 16 16 16 15 14 13 13 14 14 14 14 15 17 17 17 19 14 20 14 17 18 17 16 21 24 23 26 28 21 21 22 22 22 23 21 21 21 21 19 19 17 17 15 16 15 13 13 14 14 14 17 16 15 15 14 12 12
17 19 19 20 21 20 20 19 17 18 16 11 13 14 14 12 13 18 16 11 15 12 16 17 15 14 16 11 9 12 15 13 14 14 15 12 18 17 20 19 19 17 16 18 16 18 19 14 16 17 21 21 16 24 25 23 22 24 19 20 21 21 20 19 20 21 19 18 17 16 16 13 11 12 16 14 16 16 14 15 14 14 10 14 14 13 12
18 20 20 20 21 20 19 18 16 12 13 12 9 8 3 4 9 11 8 15 16 12 15 12 12 14 14 18 13 12 10 11 15 9 16 10 18 12 18 14 18 18 7 16 16 20 15 16 14 19 19 13 18 21 25 23 25 20 19 20 21 21 20 18 17 16 15 13 11 14 17 16 15 13 12 11 12 12 12 13 13 13 11 10 11 11 10
19 20 21 20 20 20 19 16 16 14 8 10 10 12 11 12 10 10 16 12 12 12 11 14 13 11 17 13 18 12 17 11 15 7 13 9 16 14 15 14 12 15 11 17 16 18 17 17 19 20 16 20 17 21 23 26 22 21 20 19 18 17 17 17 17 16 16 16 16 16 15 15 14 13 12 11 9 8 10 11 9 9 10 9 7 7 8
20 21 21 21 20 19 20 14 14 13 11 8 13 10 11 12 10 11 10 16 7 8 8 12 10 20 14 14 12 13 11 10 15 12 14 9 14 18 12 13 8 12 12 11 18 15 17 18 16 17 18 17 16 21 21 21 20 18 17 17 15 16 15 16 14 17 16 13 14 15 15 13 12 12 11 10 9 8 8 8 7 6 5 6 5 5 5
20 22 21 21 23 17 18 11 14 15 14 11 13 6 6 9 10 11 11 8 15 9 12 13 15 13 9 14 15 11 15 17 14 14 14 8 15 11 12 11 17 13 9 11 16 13 18 13 11 18 13 15 16 19 19 21 20 19 17 17 16 17 15 13 16 15 15 13 12 10 10 11 13 12 9 10 9 8 9 10 10 9 10 8 6 6 8
21 22 23 20 13 12 14 9 11 16 13 11 7 8 9 8 8 10 14 12 13 11 12 13 13 10 10 16 16 13 16 15 12 15 14 12 12 10 13 10 15 11 13 15 12 13 9 9 16 17 17 18 16 19 19 18 17 16 16 16 15 14 14 13 9 15 15 15 15 14 13 10 10 10 8 9 8 7 7 9 9 7 8 11 12 11 9
21 20 17 13 15 7 8 8 9 9 4 4 5 7 12 12 13 9 8 10 10 9 6 14 10 19 16 16 16 15 13 15 14 16 11 15 15 13 10 14 14 13 16 14 16 12 15 15 17 17 16 21 20 21 20 18 17 15 14 14 15 13 11 9 9 11 14 15 11 9 9 10 9 9 6 9 9 10 10 10 11 9 9 9 10 12 9
15 15 15 15 14 9 9 14 8 4 7 9 8 13 15 13 12 9 5 9 10 9 8 9 14 10 16 16 19 11 12 12 10 13 17 11 12 10 10 14 8 12 18 12 11 16 18 14 16 15 17 16 19 18 16 16 15 16 15 14 11 14 15 14 17 17 15 14 13 13 14 14 11 9 7 7 9 8 6 6 9 12 12 12 12 11 10
13 14 12 13 12 15 12 8 3 9 14 13 13 15 11 16 17 8 10 13 13 13 8 12 14 12 8 19 16 15 9 12 10 16 13 14 15 10 13 11 15 11 15 10 15 14 15 17 16 15 16 17 20 15 16 15 16 15 15 13 13 12 14 13 12 10 10 10 9 11 10 10 11 11 9 10 9 9 11 12 11 7 8 10 9 11 12
16 17 10 11 14 14 18 15 14 14 12 10 8 8 12 8 8 15 13 10 12 14 12 11 11 13 10 15 13 16 14 12 16 18 15 14 10 12 12 11 15 12 13 14 16 16 15 15 16 15 16 17 19 17 16 16 16 14 15 15 10 13 12 12 13 11 9 11 11 9 11 8 9 7 9 7 7 9 9 8 9 9 8 9 12 11 10
14 14 15 19 13 16 18 16 13 7 6 6 9 7 9 7 9 11 16 14 15 16 11 16 15 15 12 11 16 15 12 16 8 9 13 14 5 11 11 12 11 11 13 15 14 12 14 13 15 18 19 19 18 17 17 17 14 14 13 12 9 11 11 9 12 11 9 10 10 9 11 7 11 9 10 11 11 11 11 11 10 10 11 9 10 13 13
21 15 13 13 18 16 14 13 7 8 9 8 5 8 7 6 13 15 12 6 15 17 15 14 18 19 17 13 18 14 12 9 8 12 10 13 8 10 14 11 8 9 13 13 14 12 10 12 12 23 20 22 19 18 17 15 15 14 12 10 10 10 9 10 8 10 9 8 8 7 10 7 8 9 8 10 9 9 9 11 11 8 9 12 11 11 11
16 15 13 10 11 11 8 8 8 7 6 11 7 10 10 7 13 12 11 15 13 16 20 16 17 17 14 9 14 15 12 11 7 11 15 12 11 9 11 14 10 17 13 13 11 13 12 11 14 25 23 22 18 16 19 16 15 14 13 11 10 7 8 8 8 9 9 7 9 8 8 8 8 8 8 8 8 10 9 9 11 11 9 8 10 10 9
14 10 11 11 7 11 8 8 9 7 8 9 11 11 13 13 9 12 14 20 19 18 18 12 17 15 14 11 18 13 14 17 7 9 12 13 10 12 11 10 13 13 15 11 12 11 12 10 18 23 26 24 20 17 18 14 15 13 13 10 10 8 6 7 10 6 7 6 7 6 7 8 8 8 9 9 9 8 12 9 9 10 13 13 11 8 9
12 12 13 8 7 9 12 8 11 9 12 14 16 13 17 13 16 15 20 18 16 19 14 15 15 16 15 14 13 16 9 11 13 12 15 10 13 10 11 12 11 11 11 12 11 13 12 12 20 21 23 20 18 19 19 15 15 15 14 10 10 7 8 6 5 5 6 6 7 8 7 8 9 9 8 8 10 11 10 9 8 10 11 11 15 12 9
9 10 12 8 9 9 12 11 13 13 12 15 17 14 11 13 11 17 15 15 17 15 17 15 14 14 15 12 9 14 11 11 12 12 9 13 10 9 8 6 7 11 12 11 10 12 15 13 18 21 21 20 18 17 17 14 14 13 11 13 10 8 7 6 5 6 7 6 6 7 9 10 9 10 10 10 10 9 11 10 8 9 12 11 11 11 11
10 9 13 11 10 14 12 14 17 11 10 13 11 17 17 19 18 14 9 11 16 15 15 17 16 12 11 9 13 13 14 10 13 7 8 17 13 12 10 8 9 10 11 9 11 14 13 16 20 21 19 18 17 15 15 13 11 10 8 9 8 7 7 7 8 7 6 7 8 8 8 9 9 11 11 10 11 12 7 9 12 11 12 12 12 12 10
9 10 12 8 11 15 14 10 11 15 10 7 9 12 12 13 14 15 16 19 14 11 10 13 16 12 13 13 16 20 13 14 14 11 11 11 12 12 13 12 11 10 11 12 13 11 16 19 18 17 18 18 17 15 14 12 11 10 8 8 8 6 6 7 6 6 6 8 8 8 10 10 11 12 14 13 14 13 13 10 10 11 11 12 12 12 11
9 8 9 10 10 13 14 11 16 11 13 14 12 14 14 14 14 16 13 13 13 17 19 17 7 11 13 9 11 11 12 16 12 14 11 10 10 13 11 10 12 11 12 17 12 17 20 19 19 18 18 17 15 14 13 11 9 10 10 8 7 7 8 6 7 8 8 6 8 8 10 11 14 12 13 13 12 13 13 12 12 13 12 11 12 12 12
10 9 15 12 11 9 10 13 13 12 10 15 16 14 14 15 14 16 13 16 14 9 8 12 11 10 15 8 11 13 13 12 14 12 12 11 13 11 11 10 13 15 12 17 22 18 21 20 17 18 17 16 16 14 13 12 11 10 8 8 8 7 7 7 8 7 6 10 9 7 15 13 10 8 9 10 13 12 13 14 12 12 13 12 12 12 12
10 10 11 11 18 10 16 12 10 13 14 14 13 14 12 16 13 14 10 12 10 13 14 13 11 11 8 11 12 10 15 12 11 11 11 11 11 11 11 14 13 14 14 17 16 20 17 17 16 13 15 13 12 13 12 11 11 12 10 8 8 8 8 8 9 8 8 6 10 12 9 7 11 14 14 12 12 13 16 11 9 11 12 12 11 12 12
Wind_Speed
12 12 11 11 11 12 12 14 14 12 14 10 8 9 5 7 2 5 11 9 11 8 6 7 7 9 4 5 4 5 4 7 2 4 4 7 5 3 4 5 6 5 7 4 5 6 7 4 2 6 6 4 3 4 5 9 10 4 2 10 7 2 2 5 8 7 9 10 7 1 6 10 12 8 9 7 8 8 10 8 3 2 2 1 3 2 4
13 11 10 11 11 12 13 13 13 13 10 8 8 6 5 4 3 4 8 8 6 4 5 5 5 8 4 4 4 4 4 6 2 7 9 6 8 6 3 3 2 6 1 3 4 2 4 3 3 5 4 2 2 5 2 6 6 6 2 1 4 2 4 7 5 5 5 6 9 7 6 5 5 7 8 12 15 18 12 7 3 2 6 3 3 1 1
12 10 10 11 12 12 13 13 13 13 11 8 5 3 3 2 2 5 7 7 6 5 3 5 3 6 3 4 5 5 5 3 5 8 2 2 1 4 4 4 4 5 3 6 6 5 5 4 2 11 5 2 3 8 6 6 7 2 7 3 3 1 3 3 4 6 7 7 6 3 2 4 5 7 12 12 17 16 11 3 6 2 3 5 2 3 2
11 11 10 11 12 13 13 13 11 11 10 7 5 4 4 4 3 3 6 6 7 6 6 10 8 4 4 2 5 5 2 6 3 6 4 2 5 2 3 7 6 6 3 5 5 7 6 4 3 1 5 3 1 4 2 5 7 2 1 1 2 2 0 3 4 4 2 1 3 7 11 5 4 10 11 12 13 14 10 1 3 4 9 1 5 4 6
12 10 11 11 12 13 13 13 13 11 9 8 4 5 5 1 2 2 4 6 7 8 9 10 4 4 4 3 5 7 6 3 7 4 5 4 5 4 7 5 5 5 4 4 6 6 10 9 5 4 9 1 2 4 3 3 6 2 3 3 2 3 2 4 5 3 5 1 2 3 10 9 3 6 9 11 14 12 13 8 3 3 5 1 3 7 8
11 11 11 11 12 13 13 13 12 10 8 9 4 4 4 2 4 7 4 4 5 6 6 6 3 4 7 1 3 3 5 4 3 1 5 7 5 6 4 5 6 3 2 3 3 5 6 3 4 1 3 7 3 5 3 1 2 2 1 1 2 3 1 5 5 3 4 2 3 4 8 7 5 9 8 11 12 15 11 7 9 2 1 1 4 7 6
10 11 11 11 12 13 14 13 12 11 9 6 4 4 3 5 2 3 12 4 4 3 3 3 4 6 3 3 1 2 1 4 4 3 1 3 2 5 1 5 11 6 9 6 3 2 4 3 2 6 3 4 3 3 4 3 7 3 2 3 2 3 2 10 7 4 3 1 2 3 2 10 4 9 9 9 11 10 10 9 10 10 10 7 11 13 11
10 11 11 12 13 13 14 15 12 10 11 7 6 7 2 1 2 3 4 6 4 3 5 4 4 4 2 2 3 1 4 2 6 6 1 1 1 3 4 1 6 2 3 4 3 2 5 5 3 4 3 3 1 2 2 3 5 6 4 2 3 2 1 6 3 4 2 3 2 1 5 5 4 13 13 12 11 11 11 11 11 8 7 8 7 9 8
10 11 11 12 13 14 14 15 13 11 11 5 6 3 3 4 3 6 5 3 5 3 4 4 4 3 3 3 5 3 5 3 2 2 7 1 2 4 2 2 7 3 4 1 3 5 1 1 1 5 3 4 2 2 1 5 2 0 1 1 1 1 1 4 1 3 1 1 1 5 10 7 12 15 16 14 12 10 8 9 7 7 8 6 7 7 4
10 11 11 12 13 14 15 15 14 12 11 5 5 5 4 6 11 9 4 1 3 4 4 5 4 3 3 2 6 2 4 5 4 2 6 3 7 2 2 5 5 4 3 3 2 5 4 3 6 7 5 3 5 3 2 4 3 0 2 2 3 2 3 2 1 2 1 4 4 4 8 5 3 11 11 10 10 10 11 12 13 11 6 5 4 5 7
11 11 11 12 13 14 14 15 14 12 9 5 5 4 5 2 6 5 5 1 2 4 4 4 3 6 6 5 7 2 2 6 10 3 2 7 2 4 4 2 2 3 1 6 8 3 4 6 7 6 8 7 5 5 5 5 5 5 2 1 0 2 3 3 1 3 2 3 3 2 1 2 3 3 6 6 9 10 12 11 11 11 8 5 6 7 7
10 11 12 12 13 14 14 14 14 11 9 6 7 9 9 7 5 5 3 2 3 1 0 6 5 2 3 2 5 1 5 3 4 4 3 5 3 4 7 5 4 1 4 5 4 4 7 9 9 9 9 10 7 7 5 6 2 1 3 3 3 3 2 2 1 3 0 2 3 1 3 2 4 6 8 6 6 12 16 13 13 12 11 9 9 9 9
10 11 12 12 13 14 14 14 14 13 11 7 6 8 7 7 4 4 5 6 1 3 2 4 5 5 4 6 3 3 1 7 8 4 2 6 3 3 3 5 2 6 3 4 4 7 7 6 6 8 10 9 10 10 10 6 5 4 3 2 2 2 2 2 1 3 1 2 1 2 3 3 2 4 10 10 6 7 6 13 13 12 11 8 7 7 6
10 11 12 13 14 14 15 15 14 13 11 8 7 8 9 8 5 3 3 4 2 4 5 4 4 6 4 3 1 4 5 5 2 2 4 2 3 2 0 2 1 5 3 0 4 5 5 4 3 2 6 7 5 6 7 4 4 5 8 6 4 3 4 2 3 1 3 3 5 5 7 6 6 2 7 8 4 5 5 4 8 11 9 9 6 6 6
10 12 13 14 14 15 15 15 15 14 12 10 7 9 9 7 4 4 4 3 4 3 1 4 4 7 2 1 2 2 3 6 4 6 5 7 5 4 4 4 7 3 4 4 4 3 3 0 2 3 2 4 5 4 4 1 4 8 6 5 4 3 1 4 5 1 2 3 6 5 3 2 4 5 4 4 3 1 1 3 5 9 10 8 7 6 4
10 12 13 14 15 16 16 16 16 14 13 13 8 8 8 5 4 5 6 6 6 1 5 5 8 2 2 4 1 3 2 0 2 4 6 4 5 5 2 4 2 1 6 5 3 1 1 2 2 3 2 1 3 2 1 4 2 7 8 6 3 3 4 3 1 2 0 3 2 1 1 4 3 7 6 6 2 2 1 2 4 7 9 9 6 5 3
10 11 13 14 15 16 17 17 17 15 13 11 7 7 5 3 3 4 6 6 3 6 4 6 4 2 4 4 3 4 3 1 2 1 3 4 4 6 11 1 4 4 5 4 2 3 2 3 3 2 3 2 1 2 2 1 1 1 3 4 5 5 3 3 3 1 1 1 1 3 3 3 6 7 6 6 3 2 2 3 3 7 8 9 8 7 7
10 12 12 14 15 16 17 17 17 16 14 10 7 6 6 2 2 3 4 6 1 4 5 5 4 2 4 6 4 5 2 2 2 1 1 2 8 5 6 5 6 3 4 3 2 1 2 2 2 2 2 3 1 1 1 2 3 1 1 2 1 5 2 2 2 0 3 6 5 5 3 2 8 8 8 4 3 2 1 3 3 6 7 7 7 8 7
11 11 13 14 15 16 16 16 17 17 15 12 8 8 7 2 2 3 3 7 2 3 7 6 3 4 6 1 4 1 3 5 5 0 0 3 3 9 3 4 3 2 4 0 3 2 1 4 3 2 3 2 1 2 5 3 2 3 3 0 2 3 4 2 1 2 1 3 5 5 5 2 9 10 4 7 4 1 4 2 4 5 7 8 8 8 8
11 12 14 15 16 17 17 16 17 16 15 12 7 5 4 3 2 3 4 5 5 5 4 5 2 6 6 9 6 5 2 3 5 6 2 2 3 5 4 2 3 2 2 2 0 2 0 1 1 3 4 3 4 4 6 7 9 5 4 6 3 4 4 3 5 2 2 3 6 4 3 4 12 11 2 11 2 3 4 6 7 7 7 8 9 9 9
11 13 14 15 17 17 17 17 17 16 15 12 8 5 1 2 4 4 6 6 4 3 4 6 8 10 7 7 8 8 8 7 7 6 7 4 5 4 1 2 5 3 1 2 2 3 2 2 2 2 3 2 4 2 6 6 9 11 7 6 6 9 1 3 4 3 2 4 4 3 2 3 9 9 5 6 7 4 5 5 7 7 7 8 8 8 9
12 13 14 16 17 18 18 18 17 16 15 12 11 5 2 3 3 4 4 4 4 4 6 7 7 8 7 7 5 5 8 8 7 7 6 5 2 4 3 7 9 2 1 3 2 3 3 2 2 2 3 4 3 4 5 6 7 6 11 6 5 10 7 5 7 5 3 4 3 2 2 4 8 10 11 10 9 8 9 8 7 7 8 8 9 10 9
13 13 15 16 17 18 18 19 18 17 16 14 11 5 3 4 3 2 3 6 5 5 4 5 6 7 7 8 6 6 7 6 6 6 7 5 3 6 6 5 8 5 5 3 3 4 5 5 4 3 6 7 7 10 11 9 7 7 8 7 6 4 8 6 9 9 11 10 7 6 8 10 12 11 10 10 10 10 9 9 9 8 8 7 9 9 9
12 13 15 16 17 18 19 19 20 18 18 15 9 6 4 4 5 3 5 5 2 4 3 4 3 3 5 7 6 4 4 6 6 4 1 3 5 3 6 7 4 5 4 6 4 5 3 1 5 3 6 6 9 7 8 9 7 8 7 4 2 5 4 5 8 11 3 7 4 11 13 12 13 13 13 12 11 11 10 10 10 9 9 10 9 9 9
12 13 15 16 17 18 18 18 19 19 19 17 16 10 4 3 4 4 4 3 3 2 3 3 4 3 6 5 4 5 5 4 5 5 4 3 6 6 6 3 2 3 7 6 5 3 2 4 4 3 5 1 3 8 8 9 9 8 7 6 7 9 9 13 12 11 8 9 11 12 11 11 11 10 10 12 12 13 12 10 10 10 10 10 10 10 10
12 13 14 16 17 17 18 18 18 17 16 19 12 6 4 4 4 7 5 4 4 4 4 3 4 4 4 4 7 6 4 6 5 6 5 7 6 5 4 1 3 4 0 3 5 2 4 4 4 4 6 6 6 7 8 10 10 9 9 8 7 8 7 6 9 12 12 14 13 12 13 13 12 12 12 11 10 11 12 11 11 11 11 10 10 9 9
12 13 15 15 16 17 17 17 18 17 17 16 10 8 4 3 4 5 7 7 1 3 2 4 4 6 5 8 6 5 6 5 4 5 6 6 7 5 3 3 4 5 8 8 7 4 4 5 5 8 8 8 8 10 10 10 10 8 9 10 11 11 12 13 10 9 7 8 10 9 8 8 9 10 10 11 11 11 11 10 11 11 10 10 10 9 8
12 13 15 15 16 17 17 17 17 18 17 17 11 4 3 1 1 2 5 6 6 1 5 4 5 6 3 9 6 7 6 6 5 5 6 7 6 5 3 5 4 5 5 6 5 5 6 8 10 5 5 8 8 9 10 11 10 10 10 11 9 6 9 8 7 6 8 9 11 12 11 10 9 10 10 10 9 9 10 10 9 9 9 9 9 8 8
12 14 15 16 16 17 17 17 16 16 17 15 7 3 2 1 2 4 6 5 5 3 6 4 5 3 3 6 4 8 6 6 5 6 6 7 8 7 8 7 7 8 10 8 6 6 6 6 4 5 4 5 6 8 8 9 9 10 10 11 11 13 16 16 14 14 13 12 10 10 9 10 10 10 9 9 7 9 10 9 9 9 9 8 8 7 7
13 14 16 16 17 17 17 16 16 16 15 7 6 4 4 4 1 4 6 5 5 6 3 3 4 3 1 4 7 6 8 8 8 7 7 6 7 7 7 7 8 8 7 5 5 7 5 5 4 5 4 1 4 6 7 8 8 10 11 11 12 13 13 12 10 10 11 11 11 11 11 11 9 9 8 8 8 8 9 9 7 9 9 7 8 8 7
13 15 16 16 17 16 16 17 15 16 15 4 5 3 3 4 2 4 8 6 5 5 1 3 5 3 4 3 4 8 8 8 8 7 8 6 6 6 6 5 7 7 5 5 5 6 4 6 4 7 7 8 4 6 8 8 10 10 12 13 12 11 12 13 12 12 12 11 11 10 10 9 8 8 8 7 7 7 7 8 10 10 8 9 8 7 6
14 15 15 16 17 16 16 16 15 15 7 4 4 4 4 3 4 8 9 7 6 4 4 5 4 3 3 2 3 4 7 5 6 6 5 5 8 7 10 8 7 7 5 6 5 5 6 5 5 7 9 9 7 7 9 9 9 10 11 12 10 11 11 11 11 11 10 10 10 10 9 7 5 6 7 8 9 7 8 8 7 7 6 8 7 7 7
15 16 16 16 17 16 13 14 14 8 4 6 7 7 2 3 8 7 7 6 5 2 4 2 3 3 2 6 3 4 3 4 6 3 6 3 7 4 6 6 7 7 5 5 4 5 5 5 5 7 8 6 4 5 9 8 10 10 11 11 11 11 10 10 9 8 8 7 6 7 7 7 8 7 6 6 7 7 7 7 8 6 5 5 6 6 5
15 16 17 17 17 17 16 13 13 12 7 3 1 3 3 8 6 9 9 4 4 2 1 3 3 3 4 3 4 4 6 3 5 2 4 3 5 5 4 5 5 4 3 5 4 5 5 5 6 7 6 7 4 6 7 10 12 12 10 10 9 9 9 9 8 9 9 9 8 8 9 8 7 7 6 5 4 3 5 5 4 4 5 4 3 3 4
16 17 17 17 16 16 16 12 6 4 3 2 4 3 4 10 8 7 4 5 2 1 1 2 1 6 4 3 2 4 4 3 5 3 4 1 5 5 3 3 1 3 4 3 4 4 5 5 6 5 7 7 4 5 5 11 12 10 8 9 9 9 9 8 8 9 8 6 8 8 8 7 7 7 6 5 4 3 3 3 3 2 1 2 1 1 0
17 17 17 17 18 13 7 5 4 5 4 3 4 3 5 8 8 4 5 3 4 2 2 3 3 4 2 4 4 2 5 7 6 4 4 1 5 3 4 3 5 3 2 2 5 5 5 5 3 6 3 4 5 5 8 11 11 10 8 8 8 8 6 7 9 8 8 7 7 5 6 6 7 6 4 5 4 4 4 4 4 4 6 4 0 0 2
17 17 19 16 8 3 4 2 4 5 3 3 3 6 6 5 2 4 5 4 3 2 3 1 3 3 2 5 3 2 3 5 3 5 4 3 3 1 3 2 5 1 3 4 3 4 2 2 4 6 4 5 7 10 10 9 9 8 9 9 8 7 6 4 4 9 9 9 10 7 6 5 5 5 4 4 4 3 3 4 4 2 0 2 6 5 5
17 16 6 4 4 2 2 2 2 2 3 3 3 1 2 3 3 1 1 2 1 3 1 3 2 7 5 6 5 4 3 5 5 3 3 4 3 3 2 3 3 2 5 3 5 4 4 4 4 5 6 9 10 11 10 9 8 7 7 7 7 5 3 2 4 5 8 7 4 4 4 5 4 4 2 5 4 5 4 2 3 3 3 3 2 3 3
12 5 5 5 4 2 2 4 2 3 3 4 2 1 3 2 2 1 0 0 1 2 1 2 4 3 6 6 6 1 3 2 3 4 4 2 0 4 1 4 1 1 5 2 4 4 4 3 4 4 6 7 8 9 8 8 8 8 7 6 5 7 6 6 10 10 8 7 6 7 7 6 5 4 3 2 4 2 1 1 2 5 5 5 5 5 4
4 4 3 2 2 4 4 4 1 2 3 3 2 3 2 3 4 1 1 2 2 1 1 2 4 3 4 8 6 6 0 3 3 5 3 4 3 2 2 1 2 1 4 3 4 3 4 5 4 4 6 6 8 8 8 7 8 7 7 6 6 6 8 6 5 4 5 4 4 5 5 5 5 4 3 4 3 2 3 4 5 3 3 2 3 4 6
5 6 3 3 5 4 6 5 4 4 3 2 1 1 1 1 1 3 1 3 2 3 3 2 3 4 3 6 4 5 3 3 4 5 4 3 1 2 3 3 2 2 3 3 2 3 3 4 5 5 6 7 9 8 8 8 8 7 8 6 5 7 6 6 7 5 4 5 5 4 5 3 2 1 4 3 2 3 4 4 4 4 3 3 4 5 4
4 5 5 7 4 6 6 4 3 1 1 0 1 1 2 1 1 0 2 3 3 2 4 5 5 5 4 4 6 5 3 5 1 1 2 3 0 1 3 2 1 2 3 3 4 2 3 3 5 6 7 9 10 9 9 9 7 8 7 5 4 6 5 4 7 4 3 5 4 4 5 1 4 3 5 6 4 4 3 4 4 5 6 5 2 3 4
17 11 6 2 4 3 2 2 1 0 1 1 0 1 1 1 3 3 3 0 2 4 4 5 6 6 6 5 7 4 3 3 1 3 2 3 1 1 3 2 1 2 3 3 3 2 3 3 3 10 9 10 9 9 8 7 8 7 6 5 5 5 4 5 4 5 4 3 4 2 4 2 3 3 3 2 3 4 3 5 6 4 2 3 5 5 4
7 4 3 1 2 1 1 2 1 0 1 1 2 3 3 2 4 3 2 3 2 3 6 6 6 7 4 2 2 3 2 2 1 1 3 2 1 2 1 3 2 4 2 2 2 3 3 2 4 11 11 11 8 8 10 8 8 7 7 6 5 3 3 4 4 5 4 2 4 3 2 1 3 2 2 3 2 3 4 3 3 4 5 4 3 3 3
3 2 2 1 0 1 0 2 1 1 2 2 3 3 3 4 3 4 3 4 5 7 6 4 6 5 5 3 5 3 2 3 0 0 3 2 2 2 2 2 3 2 3 3 3 3 3 2 8 11 14 12 10 9 10 7 8 6 6 5 5 3 2 3 5 1 2 2 2 1 2 3 1 2 2 3 3 2 4 4 4 3 5 7 6 1 2
3 3 3 2 3 3 1 2 2 2 2 3 4 5 7 5 6 5 7 6 5 8 6 6 6 6 5 3 2 3 2 2 3 3 3 1 3 2 2 2 2 3 2 3 3 4 3 4 8 10 12 10 8 10 9 8 8 8 6 4 4 2 3 1 1 1 1 2 2 3 1 2 2 2 2 2 4 5 4 3 3 3 4 4 7 6 2
1 1 2 1 2 2 2 2 4 3 4 5 7 5 3 6 3 7 5 4 7 6 7 6 5 6 5 3 1 3 2 2 2 3 2 3 2 2 1 1 2 2 3 3 4 4 4 4 8 11 11 10 9 10 9 7 7 6 5 7 5 3 3 2 1 0 2 2 1 1 3 3 3 4 3 3 4 3 3 5 4 3 4 5 5 5 6
2 2 2 2 2 2 4 3 6 4 3 5 3 7 7 7 7 5 3 5 7 5 5 6 6 4 3 2 3 4 4 2 3 1 1 3 1 1 2 1 2 2 2 3 3 3 4 7 10 10 10 10 7 7 7 5 6 5 3 4 3 3 3 2 2 1 1 1 1 2 2 3 3 4 5 3 4 6 1 2 5 5 5 5 5 5 5
2 1 2 2 2 3 3 4 3 5 3 2 4 4 3 5 6 5 4 6 4 5 4 5 5 3 3 2 2 4 4 3 2 2 2 2 2 2 2 3 4 3 3 3 4 3 6 9 9 9 9 8 8 7 7 6 6 5 4 3 4 2 2 3 2 1 2 2 3 1 4 4 4 4 7 4 6 7 7 4 4 4 4 5 5 5 5
2 1 2 2 2 3 5 4 6 3 4 4 2 4 5 6 6 7 3 5 5 5 3 5 1 2 3 2 2 2 3 3 2 2 2 3 2 3 3 4 3 3 4 4 2 7 9 8 9 9 10 9 8 7 6 6 5 3 4 3 2 2 3 2 3 3 4 1 2 2 3 3 6 4 7 7 6 5 5 5 4 5 6 5 5 5 6
2 2 3 4 3 2 2 4 4 4 3 5 6 5 6 6 5 5 3 5 4 1 1 3 3 2 3 1 2 2 1 2 3 4 3 3 2 3 3 4 4 3 3 7 10 8 9 9 7 8 8 9 8 7 6 6 5 3 2 3 3 3 2 2 2 2 1 3 4 5 7 7 4 3 2 1 4 5 5 5 5 4 5 5 5 5 5
2 2 3 3 8 3 5 4 2 4 5 6 5 6 4 6 5 6 4 4 3 4 3 3 2 2 1 3 2 2 2 1 2 3 4 3 2 3 3 4 5 5 5 7 7 9 7 7 7 7 8 6 6 7 6 6 6 6 5 4 4 3 2 2 3 3 3 2 3 6 3 2 6 7 6 4 6 6 7 4 4 4 5 5 5 5 6
Wind_Direction
323 319 320 318 318 322 327 327 329 332 334 330 345 332 257 240 197 251 168 160 181 203 227 196 210 226 213 2 58 101 201 252 113 278 173 204 237 265 200 257 251 256 285 317 290 331 338 325 277 95 104 46 13 343 337 338 313 279 4 313 24 339 238 230 242 250 255 263 252 287 284 301 267 252 324 311 273 275 257 257 43 253 118 231 13 320 93
322 320 320 320 322 326 325 327 332 334 337 329 320 288 270 302 84 223 161 185 207 217 216 196 211 222 209 276 278 16 345 207 177 237 148 257 158 221 245 248 234 299 348 286 260 57 294 231 238 66 61 26 8 321 310 300 309 353 351 32 329 282 217 242 249 244 251 292 283 243 242 339 354 17 6 357 7 356 345 344 110 267 241 166 139 213 123
321 323 322 320 322 324 325 330 330 333 331 324 315 277 331 341 313 281 169 189 195 211 255 293 231 200 219 211 215 200 212 269 350 332 345 124 285 341 304 297 21 252 203 247 267 243 252 284 110 109 70 113 345 300 112 326 24 216 205 290 330 249 325 268 231 233 223 217 228 280 298 297 327 6 15 11 27 12 357 3 22 6 306 213 164 109 160
323 323 324 322 323 326 327 333 332 331 330 315 243 244 264 196 178 191 192 191 198 235 225 242 266 169 191 195 201 221 253 129 240 253 256 308 341 275 325 275 159 257 290 282 254 257 227 258 283 67 90 43 5 284 103 119 156 142 204 345 154 329 29 257 303 308 326 83 267 285 254 293 347 2 18 29 34 32 18 339 60 46 311 346 28 116 129
324 326 324 324 323 326 334 334 332 330 322 329 258 253 268 44 345 194 172 182 209 219 222 225 230 181 158 186 195 209 198 265 181 174 283 134 268 256 211 269 217 191 276 318 300 285 261 199 236 217 141 105 64 303 24 83 60 283 258 139 119 63 50 333 356 344 323 203 214 220 293 293 344 5 24 37 39 44 60 39 51 307 296 210 46 102 112
324 327 322 322 326 333 336 334 331 337 322 339 288 249 203 221 219 208 200 188 185 197 221 224 196 87 196 93 315 235 177 206 84 147 221 221 166 284 186 210 272 264 237 256 258 297 308 319 269 149 104 140 153 331 299 82 64 273 231 148 236 192 215 27 24 328 316 102 319 32 332 309 16 10 2 43 43 50 47 33 3 85 121 64 87 92 99
328 324 323 328 333 335 335 334 335 333 340 331 267 289 207 238 347 326 273 238 126 220 112 172 131 187 222 135 204 217 139 203 137 276 219 335 102 245 68 278 272 248 213 159 271 234 278 316 346 23 0 350 125 183 260 10 10 53 347 31 72 283 230 169 226 282 280 274 55 62 55 306 340 53 39 63 60 55 77 46 34 51 78 75 80 82 70
326 323 326 334 333 335 337 336 340 337 327 291 253 243 276 231 288 227 200 241 140 127 117 154 184 143 97 172 188 203 157 162 175 154 271 216 258 260 268 201 282 269 333 281 261 355 51 84 19 59 332 275 265 55 320 332 5 350 38 27 79 292 84 23 341 287 208 123 237 102 97 341 92 48 38 46 82 68 53 49 25 27 66 117 139 101 86
325 326 330 333 334 337 338 337 339 334 334 289 238 259 228 286 194 255 295 159 97 141 193 164 165 119 200 226 124 213 137 181 117 335 130 89 224 259 235 232 299 326 291 267 232 102 128 76 186 243 209 295 94 235 252 238 238 120 313 270 145 275 47 93 300 279 243 98 59 18 53 77 59 43 29 26 32 57 46 50 34 31 10 18 83 74 69
327 327 331 332 332 336 336 338 338 337 324 291 292 285 281 282 273 256 269 159 210 213 146 144 188 155 69 26 124 247 127 171 52 57 334 193 182 244 322 12 337 326 284 277 320 354 48 308 341 333 341 246 263 271 195 230 287 21 292 57 291 352 273 257 260 266 18 50 29 74 78 120 28 25 20 18 38 72 71 59 46 35 17 2 38 58 16
329 328 329 331 332 334 336 336 338 339 334 327 324 310 283 296 320 309 285 242 139 253 157 173 150 67 121 156 123 276 204 302 126 187 160 284 127 64 12 290 228 279 98 33 33 11 297 305 279 278 272 278 269 251 254 256 256 266 288 265 165 322 324 281 103 288 128 103 101 147 111 212 69 356 21 31 45 61 68 48 39 33 30 56 60 56 41
333 331 329 331 332 334 334 335 336 336 327 308 295 282 292 320 313 280 283 253 139 259 292 47 67 156 133 270 120 215 69 174 284 49 51 279 102 311 128 227 120 267 45 298 309 337 295 258 253 243 253 264 265 273 276 274 297 343 255 250 280 264 256 261 247 257 292 138 165 191 228 74 112 46 29 24 67 84 81 67 42 30 25 38 46 43 50
331 328 328 331 333 333 333 334 334 333 330 317 298 281 295 303 289 300 310 290 111 147 169 156 145 110 123 111 54 116 127 11 37 15 330 288 90 77 258 325 306 82 260 335 284 264 267 282 266 254 241 225 231 234 238 231 242 264 285 286 239 235 225 255 232 253 214 224 205 233 84 113 132 61 33 12 41 29 110 67 41 32 21 15 55 47 58
325 327 330 332 333 332 333 334 333 331 329 323 292 281 296 302 318 304 318 337 295 91 45 101 104 105 100 130 68 176 148 193 124 90 253 357 294 224 18 213 37 36 351 196 266 267 272 235 239 238 236 225 210 230 215 200 36 17 345 348 320 354 299 274 260 274 258 58 51 73 121 126 48 45 17 19 16 15 20 62 49 29 27 17 39 54 40
330 330 333 332 331 333 333 333 332 330 327 320 290 279 273 277 301 315 319 292 301 122 121 18 107 120 93 75 154 254 192 171 185 171 220 169 246 243 197 215 74 341 28 298 287 227 240 300 252 213 221 207 200 209 175 104 35 0 318 297 290 305 13 314 282 197 253 152 123 136 174 115 70 33 356 357 35 36 292 165 90 31 33 36 36 50 59
329 330 328 331 330 331 333 332 333 330 329 325 289 271 271 297 334 290 279 304 287 167 73 70 22 72 184 147 117 265 316 101 220 180 168 163 215 249 277 11 357 310 271 255 241 249 257 239 229 227 229 14 308 158 327 55 10 3 318 291 280 257 224 227 280 276 267 257 236 76 149 86 359 353 346 333 34 306 169 225 79 22 22 26 43 50 60
328 329 330 330 332 330 332 333 332 332 328 329 310 298 293 71 327 315 318 303 27 61 76 78 38 2 281 120 182 213 260 322 274 242 182 175 233 233 132 140 108 210 224 252 239 219 209 213 227 74 42 217 248 98 145 98 101 8 20 271 264 235 197 205 222 245 288 9 82 95 40 86 10 347 342 339 11 162 218 200 61 11 29 14 15 40 34
331 332 331 332 333 332 331 333 333 332 331 326 308 292 300 14 2 337 281 287 232 84 54 13 4 305 27 27 33 48 351 247 225 72 301 164 190 198 149 177 185 178 265 241 219 245 284 303 55 76 95 20 150 260 335 80 93 358 21 322 59 279 181 211 246 327 79 88 91 117 114 79 352 339 321 10 44 260 350 49 16 30 33 30 31 43 40
333 333 334 336 334 332 332 331 333 333 334 335 322 274 240 291 10 312 321 281 85 78 36 52 23 11 340 57 26 258 4 342 325 315 257 181 17 29 36 48 359 144 186 248 61 107 72 43 302 156 112 149 216 88 122 104 45 2 93 99 121 22 338 113 104 84 78 133 106 88 84 29 333 329 345 8 291 32 73 60 42 46 52 44 49 58 63
335 336 337 336 335 334 333 333 334 334 334 338 329 301 331 28 359 310 327 338 79 79 104 92 348 84 31 28 34 14 90 197 37 327 345 49 64 213 200 158 168 326 336 306 119 36 293 122 288 115 134 159 112 118 126 82 66 45 65 44 44 10 313 66 57 22 99 106 122 140 95 28 355 312 12 5 45 82 99 99 73 70 70 68 66 72 78
338 338 338 338 335 336 335 334 336 334 334 330 328 307 302 85 300 279 236 264 82 104 89 56 53 52 51 55 27 28 32 28 15 360 344 347 52 10 10 41 3 32 57 25 34 27 358 59 94 50 31 6 86 58 113 101 73 45 44 74 53 347 308 90 73 359 73 65 61 58 32 329 13 32 76 54 67 104 113 110 83 75 80 80 84 83 86
341 338 338 338 337 338 337 336 337 333 330 324 312 266 253 80 337 343 359 0 84 70 65 59 62 72 67 75 86 37 35 27 34 4 347 347 285 19 26 154 159 124 106 106 242 102 40 85 81 108 123 84 349 57 54 83 66 66 41 13 72 359 57 25 85 360 41 84 93 133 162 68 63 74 84 88 85 82 81 82 88 92 88 92 90 92 95
342 338 338 339 339 339 339 336 336 333 331 331 343 289 130 163 120 10 62 82 88 116 144 123 137 120 116 90 61 50 58 48 45 41 7 351 336 86 49 51 68 63 94 87 108 94 108 82 69 56 81 81 93 93 86 75 84 51 66 28 123 159 92 81 78 78 94 90 111 123 95 84 83 84 89 90 86 82 87 89 92 86 92 99 101 94 86
340 339 338 341 341 340 339 338 337 336 335 329 334 284 142 128 126 160 116 133 140 123 92 68 90 46 49 62 61 56 72 71 50 65 135 324 349 85 81 36 31 114 80 115 158 149 179 93 68 68 73 58 76 80 92 89 81 109 111 121 127 173 201 95 102 164 168 76 109 94 91 90 85 84 82 82 82 84 87 91 92 100 101 101 99 97 96
340 340 340 342 342 340 340 338 338 337 334 338 340 333 70 87 24 342 139 135 169 120 96 82 54 49 68 43 66 79 47 75 75 44 63 33 30 38 54 44 289 40 94 133 138 209 118 101 114 75 80 27 149 105 99 104 116 139 115 132 135 100 98 82 85 91 82 111 104 96 93 89 93 94 91 88 87 84 81 86 91 94 97 97 100 101 96
342 340 342 341 342 340 339 339 337 337 335 332 337 294 211 72 36 337 254 119 77 118 128 104 92 19 38 83 63 57 35 55 66 71 65 76 58 36 97 158 121 248 280 85 164 121 95 99 87 74 73 75 80 105 94 81 88 77 80 85 84 125 152 88 113 100 102 106 103 102 93 84 82 87 93 104 107 106 107 106 108 104 95 87 81 84 91
341 341 341 342 340 340 339 339 338 338 335 331 328 321 89 134 33 11 11 354 278 110 105 105 118 116 101 69 42 59 59 75 60 75 63 53 55 63 67 76 75 70 74 67 60 73 74 87 87 82 69 60 57 67 70 70 70 63 58 76 105 105 107 129 127 116 116 122 133 133 110 101 91 85 87 92 102 114 114 102 99 102 105 108 108 103 103
342 340 341 341 341 340 339 338 339 337 336 329 319 337 34 31 87 9 360 15 353 67 121 123 108 98 101 60 45 53 41 47 71 78 81 68 57 63 49 53 50 70 90 102 105 94 90 84 77 80 90 99 91 89 87 84 77 70 66 54 35 87 148 145 105 109 109 101 88 84 94 102 101 108 107 107 107 100 97 99 106 100 96 102 108 113 114
341 338 340 340 339 339 337 337 336 335 334 326 301 267 126 28 60 27 32 7 336 311 100 97 132 147 63 51 26 80 71 94 75 63 58 70 71 64 60 55 66 70 64 55 59 65 67 64 76 74 58 358 73 88 99 95 85 78 69 69 66 58 61 77 86 94 96 98 106 108 107 107 108 102 102 98 100 105 113 121 117 113 118 113 103 104 100
336 337 337 338 337 338 336 333 333 330 330 310 292 217 141 124 334 37 23 352 337 319 138 128 97 76 47 66 74 71 84 66 66 60 70 68 62 59 63 74 63 59 69 76 90 91 85 88 69 69 83 241 102 105 94 92 90 87 83 83 79 74 68 73 85 92 99 95 97 101 103 102 101 96 88 80 71 63 58 54 76 111 102 97 101 105 110
334 332 334 334 334 334 332 331 330 327 320 294 285 198 154 150 125 37 6 343 336 311 103 102 92 108 90 11 47 89 73 71 66 67 70 70 70 89 103 107 100 103 102 100 99 102 118 95 93 72 69 63 89 99 96 98 90 85 77 77 76 76 85 86 87 89 95 102 102 98 94 90 92 100 98 101 102 96 94 88 59 44 66 95 97 101 104
332 329 331 332 330 331 327 326 329 326 307 353 5 3 6 5 356 318 316 313 323 286 115 120 141 130 90 88 48 78 100 105 119 119 86 70 73 56 53 52 69 62 65 86 73 77 63 69 70 77 79 47 50 87 89 95 99 94 99 91 93 99 102 106 104 107 109 108 110 103 99 103 104 97 112 116 109 97 93 100 102 107 81 81 76 71 64
328 327 328 329 327 324 319 319 320 331 334 323 301 297 231 268 288 277 336 336 301 208 146 134 98 136 140 110 125 53 25 135 113 128 92 81 94 99 97 100 100 98 84 87 84 88 88 90 91 87 76 95 99 108 110 103 102 108 98 105 115 114 107 104 115 126 137 144 123 120 125 125 110 100 102 84 95 123 135 104 90 91 97 94 81 78 94
322 324 325 324 322 319 316 312 302 298 274 256 214 113 82 13 345 2 344 317 284 67 263 108 151 128 107 211 169 134 250 236 102 86 97 104 118 111 94 87 62 79 64 90 106 99 87 88 88 85 88 72 83 103 96 104 112 112 113 113 109 113 121 113 93 82 81 90 97 88 90 106 118 120 108 111 116 91 103 123 127 110 87 79 73 105 74
320 320 323 320 316 314 306 296 298 244 249 187 83 56 2 346 334 300 307 341 313 159 147 146 118 117 148 195 146 106 291 225 116 105 113 142 256 113 132 115 154 104 95 121 101 97 110 96 108 100 94 119 102 81 84 102 103 104 112 119 122 111 99 101 108 108 105 89 98 112 124 136 129 121 122 114 105 65 30 20 60 40 72 118 122 137 167
317 317 319 317 309 296 282 246 240 263 190 94 86 52 2 315 317 319 319 288 296 313 153 134 175 148 168 146 137 139 280 86 99 128 65 122 114 99 110 106 105 79 193 146 100 113 99 138 136 102 142 123 102 106 112 122 121 119 117 102 85 71 61 81 107 99 85 86 94 117 136 129 113 109 118 118 95 67 57 15 357 352 349 349 291 199 275
313 318 312 296 279 214 242 203 103 9 26 33 332 329 306 306 237 288 248 265 193 192 286 191 209 136 179 105 104 132 245 130 191 118 185 157 101 99 124 143 95 119 108 98 112 109 89 316 98 107 100 97 89 94 96 103 111 108 92 90 112 126 118 92 108 129 145 149 158 153 134 118 120 126 115 89 88 76 47 19 10 19 119 301 319 308 296
315 309 290 241 215 221 148 104 47 40 320 307 311 122 166 245 177 171 205 224 67 312 217 243 104 104 117 146 136 125 259 135 205 135 103 108 148 130 134 116 116 206 120 116 80 55 107 115 107 100 80 79 100 106 97 90 93 98 104 98 89 88 91 140 150 145 138 138 124 116 127 136 134 116 56 80 68 61 58 43 308 335 336 325 318 273 240
295 263 242 253 246 107 73 100 60 346 294 152 261 250 149 256 168 144 187 71 190 218 17 311 128 192 122 118 117 115 323 153 153 127 156 146 170 123 223 133 149 225 113 140 131 239 108 98 110 119 111 120 110 106 108 100 90 81 80 71 86 103 103 36 20 41 47 52 40 44 31 36 44 90 94 73 73 43 341 56 22 44 2 348 350 338 334
233 243 240 218 71 85 104 112 131 176 203 185 222 211 158 239 166 156 163 194 214 140 223 124 47 46 129 136 157 142 33 328 162 176 146 126 315 163 166 149 127 176 140 188 127 242 144 145 142 144 139 147 116 119 120 124 107 97 93 98 83 68 76 111 140 128 105 93 84 63 49 51 36 13 40 46 26 347 8 10 347 21 65 1 310 319 326
228 253 250 70 104 121 119 144 181 219 215 183 124 270 122 272 281 112 218 204 183 121 305 91 152 127 77 107 170 145 111 288 312 94 133 131 46 294 156 142 140 183 156 136 139 221 146 136 161 159 152 136 138 138 130 134 129 130 114 115 152 129 103 73 48 15 68 82 74 93 85 41 64 338 50 56 14 346 357 351 345 24 0 14 349 323 296
340 310 322 304 71 110 144 173 200 142 346 71 168 163 191 166 356 227 210 192 150 140 179 167 169 160 124 173 132 115 97 314 332 96 112 121 286 255 115 113 194 183 145 105 168 173 160 156 190 138 136 137 144 155 158 126 117 113 106 95 46 74 100 108 104 74 35 67 59 61 85 18 38 323 14 7 16 1 339 316 338 4 357 330 302 319 305
294 265 250 234 142 160 190 170 192 243 129 9 200 133 178 193 199 199 167 354 99 199 95 13 62 75 86 90 83 2 73 347 310 136 163 114 178 221 140 132 200 154 106 145 199 153 157 199 156 130 143 140 149 164 141 140 137 126 119 107 87 70 69 73 48 74 50 88 107 3 54 322 77 330 65 266 326 341 350 1 351 345 342 327 336 321 328
259 235 218 174 166 135 208 137 137 27 341 168 148 166 204 208 188 214 200 163 175 172 142 180 155 195 144 237 129 130 150 158 304 54 92 138 193 101 140 168 142 76 103 199 183 167 160 215 130 133 134 132 177 166 131 146 135 136 137 138 122 125 110 131 140 132 112 70 100 94 248 52 62 285 316 355 6 310 352 349 329 340 328 301 276 320 331
185 220 189 140 105 146 128 39 273 197 208 196 206 194 172 204 180 198 182 125 228 130 167 160 158 178 143 129 100 111 218 138 95 249 122 175 129 151 194 134 104 178 190 169 175 156 138 176 115 129 131 147 176 151 141 150 143 143 141 139 146 131 129 124 122 141 125 125 87 241 24 39 259 295 336 330 317 1 297 321 28 348 316 320 318 313 304
194 164 145 117 2 292 211 161 171 212 215 184 214 209 194 186 204 160 104 181 147 133 172 145 180 129 130 150 231 142 216 140 166 141 166 163 143 133 52 82 181 163 173 177 178 155 170 152 133 136 138 153 167 139 152 163 144 137 143 159 114 131 121 72 90 120 208 78 13 359 331 253 321 320 286 345 347 320 315 340 359 344 305 290 296 320 6
170 173 185 154 173 196 245 195 200 215 191 197 223 202 250 185 157 99 171 166 127 157 161 179 133 125 143 171 166 131 163 135 125 126 196 130 119 97 277 170 183 165 185 167 189 148 200 166 130 130 136 154 182 150 150 165 149 146 159 137 149 182 118 135 38 286 3 30 334 297 301 318 337 326 329 315 295 307 324 322 339 345 311 302 284 284 294
191 220 227 176 203 190 211 217 226 222 235 211 160 77 60 69 85 109 127 132 127 155 151 112 109 131 143 153 245 157 118 127 127 139 20 112 135 142 136 159 171 191 185 178 183 198 185 145 124 128 145 159 174 148 160 165 139 160 156 125 148 156 137 162 225 243 42 358 328 290 310 315 311 329 345 316 267 254 269 37 343 325 305 300 300 296 280
301 197 200 211 221 191 230 225 210 180 198 130 153 85 133 143 123 150 115 91 131 154 169 164 127 205 146 181 170 107 123 142 158 131 134 140 133 149 158 164 183 174 197 200 199 193 114 120 129 139 147 158 153 165 156 153 155 164 172 162 155 151 159 185 202 46 30 260 249 1 333 350 342 279 263 276 2 3 24 0 300 267 254 269 290 292 293
224 208 298 242 221 218 220 206 229 167 160 196 181 154 175 137 146 90 92 154 129 145 150 66 93 251 122 265 94 121 133 173 145 148 187 151 158 173 185 157 175 197 181 213 197 109 122 127 133 145 153 152 167 177 145 143 129 160 160 180 165 185 185 159 148 172 215 251 344 359 333 291 260 299 352 4 11 345 321 292 298 305 304 296 288 287 290
291 277 236 257 244 199 175 199 205 162 159 177 194 161 134 145 146 139 181 124 183 66 93 157 196 159 137 151 122 161 167 116 138 175 173 171 175 173 167 178 184 198 181 91 90 103 110 121 134 140 152 157 170 145 148 145 160 212 178 179 161 168 146 151 213 228 164 235 234 226 239 247 282 316 233 208 305 318 315 303 309 332 328 321 310 299 290
209 214 232 217 264 211 194 237 132 158 180 183 150 117 142 135 167 158 165 161 139 168 171 111 135 128 146 160 181 99 97 199 162 160 174 167 188 162 180 200 193 185 134 111 111 105 120 126 133 139 164 160 150 142 156 151 161 173 176 167 162 163 185 179 207 201 231 224 277 272 302 7 34 7 350 298 256 251 264 289 14 354 324 317 306 296 292